Burlington, VT

9:15 PM EDT on July 27, 2017 (GMT -0400)
Burlington International

Weather History for KBTV - March, 2014

Change the Weather History Date:

Tuesday, March 18, 2014

  Actual Average Record
Temperature  
Mean Temperature 18 °F 32 °F  
Max Temperature 35 °F 41 °F 76 °F (2012)
Min Temperature 0 °F 23 °F -7 °F (1961)
Degree Days  
Heating Degree Days 47 33  
Month to date heating degree days 843 660  
Since 1 July heating degree days 6308 6070  
Cooling Degree Days 0 0  
Month to date cooling degree days 0 0  
Year to date cooling degree days 0 0  
Moisture  
Dew Point 1 °F    
Average Humidity 50    
Maximum Humidity 75    
Minimum Humidity 24    
Precipitation  
Precipitation 0.00 in 0.08 in 0.74 in (1928)
Month to date precipitation 0.93 1.24  
Year to date precipitation 5.21 5.06  
Snow  
Snow 0.00 in 0.50 in 11.40 in (1928)
Month to date snowfall 23.5 10.7  
Since 1 July snowfall 81.8 71.5  
Snow Depth 11.00 in    
Sea Level Pressure  
Sea Level Pressure 30.31 in    
Wind  
Wind Speed 3 mph (NNE)    
Max Wind Speed 9 mph    
Max Gust Speed 10 mph    
Visibility 10 miles    
Events      
T = Trace of Precipitation, MM = Missing Value Source: NWS Daily Summary

Daily Weather History Graph

Daily Weather History Graph

Search for Another Location

Airport or City:

Trip Planner

Search our weather history database for the weather conditions in past years. The results will help you decide how hot, cold, wet, or windy it might be!

Date:

Astronomy

Mar. 18, 2014 Rise Set
Actual Time 6:59 AM EDT 7:02 PM EDT
Civil Twilight 6:30 AM EDT 7:31 PM EDT
Nautical Twilight 5:56 AM EDT 8:05 PM EDT
Astronomical Twilight 5:21 AM EDT 8:40 PM EDT
Moon 9:23 PM EDT (3/18) 7:42 AM EDT (3/18)
Length of Visible Light 13h 00m
Length of Day
12h 03m
Waning Gibbous, 96% of the Moon is Illuminated
Mar 18
Waning Gibbous
Mar 23
Last Quarter
Mar 30
New
Apr 7
First Quarter
Apr 15
Full

Hourly Weather History & Observations

Time (EDT) Temp. Windchill Dew Point Humidity Pressure Visibility Wind Dir Wind Speed Gust Speed Precip Events Conditions
12:54 AM 6.1 °F -0.9 °F -2.9 °F 67% 30.24 in 10.0 mi ENE 3.5 mph - N/A   Clear
1:54 AM 3.0 °F -4.4 °F -5.1 °F 69% 30.26 in 10.0 mi East 3.5 mph - N/A   Clear
2:54 AM 1.9 °F - -5.1 °F 72% 30.27 in 10.0 mi Calm Calm - N/A   Clear
3:54 AM 3.0 °F -6.4 °F -5.1 °F 69% 30.27 in 10.0 mi ENE 4.6 mph - N/A   Clear
4:54 AM 1.0 °F -8.7 °F -5.1 °F 75% 30.27 in 10.0 mi East 4.6 mph - N/A   Clear
5:54 AM -0.0 °F -7.9 °F -7.1 °F 72% 30.30 in 10.0 mi ESE 3.5 mph - N/A   Clear
6:54 AM 1.0 °F - -6.0 °F 72% 30.31 in 10.0 mi Calm Calm - N/A   Scattered Clouds
7:54 AM 3.0 °F -4.4 °F -6.0 °F 66% 30.34 in 10.0 mi ENE 3.5 mph - N/A   Mostly Cloudy
8:54 AM 10.0 °F 3.6 °F -2.9 °F 56% 30.34 in 10.0 mi East 3.5 mph - N/A   Mostly Cloudy
9:54 AM 15.1 °F 9.4 °F -2.0 °F 47% 30.35 in 10.0 mi ENE 3.5 mph - N/A   Partly Cloudy
10:54 AM 21.0 °F - -2.0 °F 36% 30.35 in 10.0 mi Calm Calm - N/A   Partly Cloudy
11:54 AM 23.0 °F 15.8 °F 1.0 °F 39% 30.34 in 10.0 mi NW 5.8 mph - N/A   Partly Cloudy
12:54 PM 26.1 °F 19.4 °F 1.0 °F 34% 30.34 in 10.0 mi NW 5.8 mph - N/A   Partly Cloudy
1:54 PM 27.0 °F 20.5 °F 3.9 °F 37% 30.34 in 10.0 mi SW 5.8 mph - N/A   Partly Cloudy
2:54 PM 30.0 °F - 3.9 °F 33% 30.32 in 10.0 mi Calm Calm - N/A   Partly Cloudy
3:54 PM 30.9 °F 26.2 °F 3.0 °F 31% 30.32 in 10.0 mi NNW 4.6 mph - N/A   Partly Cloudy
4:54 PM 34.0 °F - -0.0 °F 24% 30.32 in 10.0 mi Calm Calm - N/A   Clear
5:54 PM 32.0 °F 24.2 °F 5.0 °F 32% 30.31 in 10.0 mi NW 9.2 mph - N/A   Clear
6:54 PM 28.0 °F 21.7 °F 6.1 °F 39% 30.32 in 10.0 mi NW 5.8 mph - N/A   Clear
7:54 PM 25.0 °F 19.3 °F 8.1 °F 49% 30.33 in 10.0 mi NW 4.6 mph - N/A   Clear
8:54 PM 24.1 °F 19.7 °F 9.0 °F 53% 30.33 in 10.0 mi SW 3.5 mph - N/A   Clear
9:54 PM 21.9 °F 13.4 °F 9.0 °F 58% 30.34 in 10.0 mi NW 6.9 mph - N/A   Clear
10:54 PM 21.0 °F - 8.1 °F 57% 30.32 in 10.0 mi Calm Calm - N/A   Clear
11:54 PM 18.0 °F - 9.0 °F 68% 30.32 in 10.0 mi Calm Calm - N/A   Clear